,,PA_Meas_PMT16A,,PR_Meas_QMR101_102,,RH_Meas_QMH101,,SR_Meas_QMS101,,TA_Meas_QMH101,,GenWind,,GenWind,
time,status,PA,status,PR,status,RH,status,SR,status,TA,status,DirAvg,status,SpdAvg,
2013-05-20, 07:46:04,VALID,918.077,VALID,0,VALID,97.3434,VALID,139.029,VALID,19.0608,VALID,190,VALID,0,
2013-05-20, 07:47:04,VALID,918.095,VALID,0,VALID,97.3358,VALID,140.533,VALID,19.0803,VALID,170,VALID,0,
2013-05-20, 07:48:04,VALID,918.143,VALID,0,VALID,97.3281,VALID,141.93,VALID,19.0398,VALID,160,VALID,0,
2013-05-20, 07:49:04,VALID,918.179,VALID,0,VALID,97.2977,VALID,143.326,VALID,19.1193,VALID,166,VALID,0,
2013-05-20, 07:50:04,VALID,918.131,VALID,0,VALID,97.2748,VALID,144.831,VALID,19.0788,VALID,175,VALID,0,
2013-05-20, 07:51:04,VALID,918.039,VALID,0,VALID,97.2367,VALID,146.55,VALID,19.0998,VALID,154,VALID,0,
2013-05-20, 07:52:04,VALID,918.117,VALID,0,VALID,97.1909,VALID,148.269,VALID,19.0788,VALID,170,VALID,0,
2013-05-20, 07:53:04,VALID,918.12,VALID,0,VALID,97.1757,VALID,149.88,VALID,19.0983,VALID,171,VALID,0,
2013-05-20, 07:54:04,VALID,918.116,VALID,0,VALID,97.1376,VALID,151.599,VALID,19.0983,VALID,147,VALID,0,
2013-05-20, 07:55:04,VALID,918.097,VALID,0,VALID,97.1223,VALID,153.426,VALID,19.1178,VALID,155,VALID,0,
2013-05-20, 07:56:04,VALID,918.185,VALID,0,VALID,97.069,VALID,155.145,VALID,19.1763,VALID,175,VALID,0,
2013-05-20, 07:57:04,VALID,918.144,VALID,0,VALID,97.0232,VALID,157.509,VALID,19.1958,VALID,145,VALID,0,
2013-05-20, 07:58:04,VALID,918.11,VALID,0,VALID,96.9927,VALID,160.087,VALID,19.2738,VALID,144,VALID,0,
2013-05-20, 07:59:04,VALID,918.187,VALID,0,VALID,96.9394,VALID,162.558,VALID,19.3128,VALID,147,VALID,0,
2013-05-20, 08:00:04,VALID,918.052,VALID,0,VALID,96.8784,VALID,163.955,VALID,19.3338,VALID,142,VALID,0,
2013-05-20, 08:01:04,VALID,918.209,VALID,0,VALID,96.7793,VALID,165.674,VALID,19.2738,VALID,139,VALID,0,
2013-05-20, 08:02:04,VALID,918.041,VALID,0,VALID,96.6268,VALID,168.36,VALID,19.3323,VALID,126,VALID,0,
2013-05-20, 08:03:04,VALID,918.07,VALID,0,VALID,96.5048,VALID,171.476,VALID,19.3908,VALID,126,VALID,0,
2013-05-20, 08:04:04,VALID,918.104,VALID,0,VALID,96.4438,VALID,175.451,VALID,19.3908,VALID,126,VALID,0,
2013-05-20, 08:05:04,VALID,918.115,VALID,0,VALID,96.3447,VALID,179.856,VALID,19.4493,VALID,126,VALID,0,
2013-05-20, 08:06:04,VALID,918.096,VALID,0,VALID,96.3066,VALID,183.187,VALID,19.5063,VALID,125,VALID,0,
2013-05-20, 08:07:04,VALID,918.162,VALID,0,VALID,96.2837,VALID,183.832,VALID,19.5648,VALID,144,VALID,0,
2013-05-20, 08:08:04,VALID,918.182,VALID,0,VALID,96.2761,VALID,189.311,VALID,19.6428,VALID,156,VALID,0,
2013-05-20, 08:09:04,VALID,918.318,VALID,0,VALID,96.2533,VALID,192.32,VALID,19.7613,VALID,125,VALID,0,
2013-05-20, 08:10:04,VALID,918.188,VALID,0,VALID,96.2456,VALID,191.245,VALID,19.8183,VALID,116,VALID,0,
2013-05-20, 08:11:04,VALID,918.109,VALID,0,VALID,96.0474,VALID,189.526,VALID,19.8198,VALID,111,VALID,0,
2013-05-20, 08:12:04,VALID,918.057,VALID,0,VALID,95.8492,VALID,189.849,VALID,19.8183,VALID,121,VALID,0,
2013-05-20, 08:13:04,VALID,918.078,VALID,0,VALID,95.9026,VALID,192.105,VALID,19.9173,VALID,110,VALID,0,
2013-05-20, 08:14:04,VALID,918.288,VALID,0,VALID,95.5595,VALID,194.576,VALID,19.8573,VALID,98,VALID,0,
2013-05-20, 08:15:04,VALID,918.431,VALID,0,VALID,95.7654,VALID,198.229,VALID,19.9563,VALID,77,VALID,0,
2013-05-20, 08:16:04,VALID,918.251,VALID,0,VALID,95.4604,VALID,201.452,VALID,19.9353,VALID,79,VALID,0,
2013-05-20, 08:17:04,VALID,918.181,VALID,0,VALID,95.1021,VALID,201.452,VALID,19.9368,VALID,79,VALID,0,
2013-05-20, 08:18:04,VALID,918.34,VALID,0,VALID,95.0488,VALID,208.543,VALID,19.8588,VALID,103,VALID,0,
2013-05-20, 08:19:04,VALID,918.27,VALID,0,VALID,94.6447,VALID,207.147,VALID,19.8393,VALID,101,VALID,0,
2013-05-20, 08:20:04,VALID,918.246,VALID,0,VALID,94.9573,VALID,215.527,VALID,19.8978,VALID,75,VALID,0,
2013-05-20, 08:21:04,VALID,918.272,VALID,0,VALID,95.064,VALID,218.858,VALID,19.9758,VALID,78,VALID,0,
2013-05-20, 08:22:04,VALID,918.306,VALID,0,VALID,94.6523,VALID,232.503,VALID,19.9563,VALID,78,VALID,0,
2013-05-20, 08:23:04,VALID,918.292,VALID,0,VALID,94.9039,VALID,236.908,VALID,20.0328,VALID,78,VALID,0,
2013-05-20, 08:24:04,VALID,918.278,VALID,0,VALID,94.8048,VALID,244.321,VALID,20.1108,VALID,78,VALID,0,
2013-05-20, 08:25:04,VALID,918.169,VALID,0,VALID,94.1644,VALID,257.859,VALID,20.0913,VALID,77,VALID,0,
2013-05-20, 08:26:04,VALID,918.356,VALID,0,VALID,94.1873,VALID,270.644,VALID,20.2098,VALID,72,VALID,0,
2013-05-20, 08:27:04,VALID,918.413,VALID,0,VALID,94.4617,VALID,286.116,VALID,20.3253,VALID,74,VALID,0,
2013-05-20, 08:28:04,VALID,918.18,VALID,0,VALID,94.1644,VALID,293.207,VALID,20.4033,VALID,78,VALID,0,
2013-05-20, 08:29:04,VALID,918.351,VALID,0,VALID,93.9357,VALID,304.811,VALID,20.5594,VALID,45,VALID,0,
2013-05-20, 08:30:04,VALID,918.588,VALID,0,VALID,93.5469,VALID,318.885,VALID,20.6975,VALID,47,VALID,0,
2013-05-20, 08:31:04,VALID,918.288,VALID,0,VALID,92.129,VALID,343.382,VALID,20.7365,VALID,39,VALID,0,
2013-05-20, 08:32:04,VALID,918.359,VALID,0,VALID,91.3209,VALID,359.283,VALID,20.795,VALID,43,VALID,0,
2013-05-20, 08:33:04,VALID,918.376,VALID,0,VALID,90.2689,VALID,383.028,VALID,20.8535,VALID,42,VALID,0,
2013-05-20, 08:34:04,VALID,918.353,VALID,0,VALID,89.7352,VALID,391.838,VALID,20.891,VALID,59,VALID,0,
2013-05-20, 08:35:04,VALID,918.355,VALID,0,VALID,88.4164,VALID,407.524,VALID,20.9706,VALID,63,VALID,0,
2013-05-20, 08:36:04,VALID,918.278,VALID,0,VALID,87.7455,VALID,431.484,VALID,21.0681,VALID,77,VALID,0,
2013-05-20, 08:37:04,VALID,918.231,VALID,0,VALID,88.607,VALID,442.335,VALID,21.2242,VALID,49,VALID,0,
2013-05-20, 08:38:04,VALID,918.636,VALID,0,VALID,88.3706,VALID,449.641,VALID,21.3591,VALID,59,VALID,0,
2013-05-20, 08:39:04,VALID,918.166,VALID,0,VALID,86.4572,VALID,474.353,VALID,21.5559,VALID,38,VALID,0,
2013-05-20, 08:40:04,VALID,918.232,VALID,0,VALID,84.0787,VALID,468.766,VALID,21.6924,VALID,58,VALID,0,
2013-05-20, 08:41:04,VALID,918.236,VALID,0,VALID,85.0316,VALID,488.535,VALID,21.8485,VALID,52,VALID,0,
2013-05-20, 08:42:04,VALID,918.289,VALID,0,VALID,84.8181,VALID,493.047,VALID,21.9851,VALID,63,VALID,0,
2013-05-20, 08:43:04,VALID,918.21,VALID,0,VALID,84.7495,VALID,476.716,VALID,22.2176,VALID,41,VALID,0,
2013-05-20, 08:44:04,VALID,918.27,VALID,0,VALID,81.7916,VALID,480.907,VALID,22.4128,VALID,98,VALID,0,
2013-05-20, 08:45:04,VALID,918.41,VALID,0,VALID,82.8284,VALID,482.626,VALID,22.5316,VALID,99,VALID,0,
2013-05-20, 08:46:04,VALID,917.793,VALID,0,VALID,80.7167,VALID,483.378,VALID,22.6096,VALID,73,VALID,0,
2013-05-20, 08:47:04,VALID,918.228,VALID,0,VALID,81.7535,VALID,468.443,VALID,22.647,VALID,72,VALID,0,
2013-05-20, 08:48:04,VALID,918.402,VALID,0,VALID,80.3661,VALID,479.402,VALID,22.7641,VALID,139,VALID,0,
2013-05-20, 08:49:04,VALID,918.319,VALID,0,VALID,81.6315,VALID,452.22,VALID,22.8634,VALID,139,VALID,0,
2013-05-20, 08:50:04,VALID,918.27,VALID,0,VALID,80.4652,VALID,439.219,VALID,23.0373,VALID,186,VALID,0,
2013-05-20, 08:51:04,VALID,918.343,VALID,0,VALID,77.1871,VALID,453.617,VALID,23.1757,VALID,158,VALID,0,
2013-05-20, 08:52:04,VALID,918.348,VALID,0,VALID,77.2557,VALID,440.401,VALID,23.0551,VALID,158,VALID,0,
2013-05-20, 08:53:04,VALID,918.008,VALID,0,VALID,78.9252,VALID,434.277,VALID,23.0976,VALID,138,VALID,0,
2013-05-20, 08:54:04,VALID,918.198,VALID,0,VALID,77.8198,VALID,430.302,VALID,23.1171,VALID,175,VALID,0,
2013-05-20, 08:55:04,VALID,918.318,VALID,0,VALID,79.0472,VALID,408.276,VALID,23.0551,VALID,177,VALID,0,
2013-05-20, 08:56:04,VALID,918.317,VALID,0,VALID,78.2162,VALID,387.755,VALID,23.1154,VALID,172,VALID,0,
2013-05-20, 08:57:04,VALID,917.971,VALID,0,VALID,78.3611,VALID,399.574,VALID,23.1544,VALID,156,VALID,0,
2013-05-20, 08:58:04,VALID,918.196,VALID,0,VALID,78.0562,VALID,404.194,VALID,23.2325,VALID,177,VALID,0,
2013-05-20, 08:59:04,VALID,918.241,VALID,0,VALID,78.8185,VALID,406.665,VALID,23.2502,VALID,182,VALID,0,
2013-05-20, 09:00:04,VALID,917.969,VALID,0,VALID,78.2925,VALID,445.666,VALID,23.4277,VALID,179,VALID,0,
2013-05-20, 09:01:04,VALID,918.137,VALID,0,VALID,76.783,VALID,464.468,VALID,23.6034,VALID,181,VALID,0,
2013-05-20, 09:02:04,VALID,918.178,VALID,0,VALID,76.0131,VALID,469.088,VALID,23.6815,VALID,181,VALID,0,
2013-05-20, 09:03:04,VALID,917.956,VALID,0,VALID,75.5709,VALID,475.749,VALID,23.7773,VALID,181,VALID,0,
2013-05-20, 09:04:04,VALID,918.271,VALID,0,VALID,74.8772,VALID,499.924,VALID,23.9707,VALID,181,VALID,0,
2013-05-20, 09:05:04,VALID,918.165,VALID,0,VALID,73.7565,VALID,509.379,VALID,24.2458,VALID,126,VALID,0,
2013-05-20, 09:06:04,VALID,918.028,VALID,0,VALID,72.8112,VALID,514.965,VALID,24.1677,VALID,76,VALID,0,
2013-05-20, 09:07:04,VALID,918.13,VALID,0,VALID,71.4543,VALID,529.9,VALID,24.0701,VALID,42,VALID,0,
2013-05-20, 09:08:04,VALID,917.992,VALID,0,VALID,72.8799,VALID,530.974,VALID,24.1305,VALID,37,VALID,0,
2013-05-20, 09:09:04,VALID,917.94,VALID,0,VALID,70.7529,VALID,531.189,VALID,24.2049,VALID,70,VALID,0,
2013-05-20, 09:10:04,VALID,918.16,VALID,0,VALID,70.0592,VALID,536.239,VALID,24.3825,VALID,63,VALID,0,
2013-05-20, 09:11:04,VALID,918.029,VALID,0,VALID,68.2601,VALID,543.652,VALID,24.6168,VALID,25,VALID,0,
2013-05-20, 09:12:04,VALID,918.047,VALID,0,VALID,67.2309,VALID,561.487,VALID,24.8511,VALID,91,VALID,0,
2013-05-20, 09:13:04,VALID,918.153,VALID,0,VALID,68.5421,VALID,578.141,VALID,24.7535,VALID,98,VALID,0,
2013-05-20, 09:14:04,VALID,918.327,VALID,0,VALID,68.4507,VALID,579.215,VALID,24.8297,VALID,98,VALID,0,
2013-05-20, 09:15:04,VALID,918.193,VALID,0,VALID,68.0619,VALID,584.802,VALID,24.9488,VALID,98,VALID,0,
2013-05-20, 09:16:04,VALID,918.103,VALID,0,VALID,67.8941,VALID,581.364,VALID,24.8707,VALID,343,VALID,0,
2013-05-20, 09:17:04,VALID,918.034,VALID,0,VALID,67.6731,VALID,585.125,VALID,24.9097,VALID,285,VALID,0,
2013-05-20, 09:18:04,VALID,918.061,VALID,0,VALID,69.0758,VALID,579.215,VALID,25.0093,VALID,285,VALID,0,
2013-05-20, 09:19:04,VALID,917.927,VALID,0,VALID,70.6233,VALID,573.736,VALID,25.1245,VALID,268,VALID,0,
2013-05-20, 09:20:04,VALID,918.051,VALID,0,VALID,70.2117,VALID,567.934,VALID,24.9488,VALID,253,VALID,0,
2013-05-20, 09:21:04,VALID,918.063,VALID,0,VALID,71.3171,VALID,562.669,VALID,24.5973,VALID,253,VALID,0,
2013-05-20, 09:22:04,VALID,917.967,VALID,0,VALID,71.4924,VALID,560.95,VALID,24.3435,VALID,245,VALID,0,
2013-05-20, 09:23:04,VALID,918.08,VALID,0,VALID,71.8126,VALID,557.405,VALID,24.2849,VALID,245,VALID,0,
2013-05-20, 09:24:04,VALID,918.296,VALID,0,VALID,72.3538,VALID,557.512,VALID,24.3435,VALID,245,VALID,0,
2013-05-20, 09:25:04,VALID,917.963,VALID,0,VALID,71.9498,VALID,559.554,VALID,24.4587,VALID,215,VALID,0,
2013-05-20, 09:26:04,VALID,917.967,VALID,0,VALID,67.9932,VALID,550.421,VALID,24.5368,VALID,216,VALID,0,
2013-05-20, 09:27:04,VALID,917.953,VALID,0,VALID,63.808,VALID,543.652,VALID,24.5759,VALID,219,VALID,0.389453,
2013-05-20, 09:28:04,VALID,917.922,VALID,0,VALID,65.2259,VALID,544.512,VALID,24.6149,VALID,219,VALID,0.411719,
2013-05-20, 09:29:04,VALID,917.966,VALID,0,VALID,62.7331,VALID,540.966,VALID,24.7516,VALID,219,VALID,0,
2013-05-20, 09:30:04,VALID,918.02,VALID,0,VALID,63.5336,VALID,541.181,VALID,24.9274,VALID,203,VALID,0,
2013-05-20, 09:31:04,VALID,918.051,VALID,0,VALID,66.2322,VALID,555.148,VALID,25.025,VALID,317,VALID,0,
2013-05-20, 09:32:04,VALID,918.068,VALID,0,VALID,68.3744,VALID,566.859,VALID,25.0074,VALID,316,VALID,0,
2013-05-20, 09:33:04,VALID,918.107,VALID,0,VALID,68.7937,VALID,571.265,VALID,24.9292,VALID,316,VALID,0,
2013-05-20, 09:34:04,VALID,918.055,VALID,0,VALID,67.6807,VALID,574.488,VALID,25.105,VALID,316,VALID,0,
2013-05-20, 09:35:04,VALID,918.076,VALID,0,VALID,67.1928,VALID,577.174,VALID,25.1831,VALID,306,VALID,0,
2013-05-20, 09:36:04,VALID,918.022,VALID,0,VALID,67.9932,VALID,594.687,VALID,25.2417,VALID,351,VALID,0,
2013-05-20, 09:37:04,VALID,917.999,VALID,0,VALID,67.4749,VALID,598.125,VALID,25.4565,VALID,12,VALID,0,
2013-05-20, 09:38:04,VALID,918.054,VALID,0,VALID,67.4367,VALID,601.456,VALID,25.6128,VALID,14,VALID,0,
2013-05-20, 09:39:04,VALID,918.01,VALID,0,VALID,67.1547,VALID,611.448,VALID,25.8081,VALID,360,VALID,0,
2013-05-20, 09:40:04,VALID,918.04,VALID,0,VALID,65.4089,VALID,620.043,VALID,25.8277,VALID,323,VALID,0,
2013-05-20, 09:41:04,VALID,918.04,VALID,0,VALID,66.095,VALID,634.87,VALID,25.6909,VALID,323,VALID,0,
2013-05-20, 09:42:04,VALID,918.054,VALID,0,VALID,67.1775,VALID,653.457,VALID,25.8452,VALID,342,VALID,0,
2013-05-20, 09:43:04,VALID,918.045,VALID,0,VALID,65.2869,VALID,652.92,VALID,26.0601,VALID,26,VALID,0,
2013-05-20, 09:44:04,VALID,918.042,VALID,0,VALID,63.9681,VALID,654.639,VALID,26.2945,VALID,27,VALID,0,
2013-05-20, 09:45:04,VALID,918.05,VALID,0,VALID,64.2349,VALID,656.895,VALID,26.4292,VALID,293,VALID,0,
2013-05-20, 09:46:04,VALID,918.031,VALID,0,VALID,60.7891,VALID,654.424,VALID,26.2925,VALID,280,VALID,0,
2013-05-20, 09:47:04,VALID,918.053,VALID,0,VALID,63.0685,VALID,650.449,VALID,26.0581,VALID,307,VALID,0,
2013-05-20, 09:48:04,VALID,918.023,VALID,0,VALID,65.447,VALID,651.201,VALID,26.0386,VALID,280,VALID,0,
2013-05-20, 09:49:04,VALID,918.022,VALID,0,VALID,63.4878,VALID,650.878,VALID,25.98,VALID,280,VALID,0,
2013-05-20, 09:50:04,VALID,918.002,VALID,0,VALID,64.1892,VALID,657.755,VALID,25.98,VALID,316,VALID,0,
2013-05-20, 09:51:04,VALID,917.968,VALID,0,VALID,60.8501,VALID,651.738,VALID,25.9585,VALID,305,VALID,0,
2013-05-20, 09:52:04,VALID,917.965,VALID,0,VALID,61.8869,VALID,651.953,VALID,26.0972,VALID,349,VALID,0,
2013-05-20, 09:53:04,VALID,917.939,VALID,0,VALID,56.4819,VALID,655.606,VALID,26.2319,VALID,347,VALID,0,
2013-05-20, 09:54:04,VALID,917.928,VALID,0,VALID,58.0981,VALID,657.432,VALID,26.4488,VALID,349,VALID,0,
2013-05-20, 09:55:04,VALID,917.884,VALID,0,VALID,58.1285,VALID,654.961,VALID,26.7223,VALID,350,VALID,0,
2013-05-20, 09:56:04,VALID,917.907,VALID,0,VALID,57.3128,VALID,662.912,VALID,26.9567,VALID,23,VALID,0,
2013-05-20, 09:57:04,VALID,917.917,VALID,0,VALID,55.3765,VALID,670.11,VALID,27.1305,VALID,16,VALID,0,
2013-05-20, 09:58:04,VALID,917.898,VALID,0,VALID,56.3904,VALID,664.953,VALID,27.3886,VALID,14,VALID,0,
2013-05-20, 09:59:04,VALID,917.918,VALID,0,VALID,54.6599,VALID,652.92,VALID,27.3691,VALID,6,VALID,0,
2013-05-20, 10:00:04,VALID,917.878,VALID,0,VALID,54.0119,VALID,667.639,VALID,27.4451,VALID,17,VALID,0,
2013-05-20, 10:01:04,VALID,917.913,VALID,0,VALID,54.5227,VALID,682.466,VALID,27.4647,VALID,302,VALID,0,
2013-05-20, 10:02:04,VALID,917.903,VALID,0,VALID,53.6765,VALID,688.375,VALID,27.2302,VALID,255,VALID,0,
2013-05-20, 10:03:04,VALID,917.887,VALID,0,VALID,54.8962,VALID,688.698,VALID,26.9176,VALID,255,VALID,0,
2013-05-20, 10:04:04,VALID,917.86,VALID,0,VALID,57.1527,VALID,686.549,VALID,26.8415,VALID,255,VALID,0,
2013-05-20, 10:05:04,VALID,917.888,VALID,0,VALID,56.8859,VALID,686.764,VALID,26.7613,VALID,288,VALID,0,
2013-05-20, 10:06:04,VALID,917.864,VALID,0,VALID,56.177,VALID,690.095,VALID,26.8395,VALID,279,VALID,0,
2013-05-20, 10:07:04,VALID,917.854,VALID,0,VALID,53.1276,VALID,684.83,VALID,26.9001,VALID,272,VALID,0,
2013-05-20, 10:08:04,VALID,917.883,VALID,0,VALID,52.998,VALID,692.028,VALID,26.7223,VALID,257,VALID,0,
2013-05-20, 10:09:04,VALID,917.879,VALID,0,VALID,53.1657,VALID,692.351,VALID,26.5269,VALID,257,VALID,0,
2013-05-20, 10:10:04,VALID,917.894,VALID,0,VALID,54.3931,VALID,693.747,VALID,26.605,VALID,286,VALID,0,
2013-05-20, 10:11:04,VALID,917.865,VALID,0,VALID,57.6102,VALID,685.689,VALID,26.603,VALID,286,VALID,0,
2013-05-20, 10:12:04,VALID,917.887,VALID,0,VALID,54.0348,VALID,671.615,VALID,26.605,VALID,231,VALID,0,
2013-05-20, 10:13:04,VALID,917.899,VALID,0,VALID,53.0056,VALID,665.705,VALID,26.3902,VALID,245,VALID,0,
2013-05-20, 10:14:04,VALID,917.862,VALID,0,VALID,55.2698,VALID,657.325,VALID,26.3316,VALID,221,VALID,0,
2013-05-20, 10:15:04,VALID,917.86,VALID,0,VALID,53.5621,VALID,645.506,VALID,26.2905,VALID,240,VALID,0,
2013-05-20, 10:16:04,VALID,917.845,VALID,0,VALID,52.7159,VALID,689.987,VALID,26.3316,VALID,240,VALID,0,
2013-05-20, 10:17:04,VALID,917.83,VALID,0,VALID,53.7451,VALID,718.889,VALID,26.4312,VALID,240,VALID,0,
2013-05-20, 10:18:04,VALID,917.817,VALID,0,VALID,55.7195,VALID,724.261,VALID,26.5269,VALID,243,VALID,0,
2013-05-20, 10:19:04,VALID,917.786,VALID,0,VALID,56.8631,VALID,717.062,VALID,26.7027,VALID,343,VALID,0,
2013-05-20, 10:20:04,VALID,917.782,VALID,0,VALID,54.4769,VALID,718.566,VALID,26.9958,VALID,331,VALID,0,
2013-05-20, 10:21:04,VALID,917.794,VALID,0,VALID,56.4666,VALID,705.136,VALID,27.2693,VALID,305,VALID,0,
2013-05-20, 10:22:04,VALID,917.786,VALID,0,VALID,53.1886,VALID,709.541,VALID,27.3475,VALID,244,VALID,0,
2013-05-20, 10:23:04,VALID,917.752,VALID,0,VALID,54.8429,VALID,712.657,VALID,27.2693,VALID,255,VALID,0,
2013-05-20, 10:24:04,VALID,917.725,VALID,0,VALID,55.1173,VALID,724.691,VALID,26.9762,VALID,243,VALID,0,
2013-05-20, 10:25:04,VALID,917.683,VALID,0,VALID,56.9927,VALID,729.418,VALID,26.6226,VALID,249,VALID,0,
2013-05-20, 10:26:04,VALID,917.677,VALID,0,VALID,58.9138,VALID,754.452,VALID,26.5464,VALID,240,VALID,0,
2013-05-20, 10:27:04,VALID,917.692,VALID,0,VALID,59.5694,VALID,757.568,VALID,26.7418,VALID,282,VALID,0,
2013-05-20, 10:28:04,VALID,917.675,VALID,0,VALID,54.172,VALID,754.667,VALID,26.8981,VALID,288,VALID,0,
2013-05-20, 10:29:04,VALID,917.658,VALID,0,VALID,52.5635,VALID,756.708,VALID,26.857,VALID,284,VALID,0,
2013-05-20, 10:30:04,VALID,917.635,VALID,0,VALID,54.0881,VALID,770.998,VALID,26.9762,VALID,327,VALID,0,
2013-05-20, 10:31:04,VALID,917.628,VALID,0,VALID,50.6119,VALID,790.659,VALID,27.15,VALID,277,VALID,0,
2013-05-20, 10:32:04,VALID,917.626,VALID,0,VALID,50.467,VALID,772.824,VALID,27.1911,VALID,258,VALID,0,
2013-05-20, 10:33:04,VALID,917.593,VALID,0,VALID,51.3285,VALID,733.93,VALID,27.2302,VALID,300,VALID,0,
2013-05-20, 10:34:04,VALID,917.598,VALID,0,VALID,50.1392,VALID,796.891,VALID,27.4061,VALID,31,VALID,0,
2013-05-20, 10:35:04,VALID,917.568,VALID,0,VALID,51.9841,VALID,666.457,VALID,27.6406,VALID,32,VALID,0,
2013-05-20, 10:36:04,VALID,917.602,VALID,0,VALID,50.063,VALID,658.829,VALID,27.7383,VALID,314,VALID,0,
2013-05-20, 10:37:04,VALID,917.537,VALID,0,VALID,53.5697,VALID,581.901,VALID,27.6601,VALID,43,VALID,0.123438,
2013-05-20, 10:38:04,VALID,917.542,VALID,0,VALID,50.5661,VALID,565.248,VALID,27.6601,VALID,15,VALID,0,
2013-05-20, 10:39:04,VALID,917.526,VALID,0,VALID,55.8263,VALID,666.135,VALID,27.4842,VALID,19,VALID,0,
2013-05-20, 10:40:04,VALID,917.511,VALID,0,VALID,51.9231,VALID,773.791,VALID,27.5428,VALID,334,VALID,0,
2013-05-20, 10:41:04,VALID,917.544,VALID,0,VALID,51.9231,VALID,780.882,VALID,27.4821,VALID,297,VALID,0,
2013-05-20, 10:42:04,VALID,917.525,VALID,0,VALID,52.4415,VALID,855.232,VALID,27.3844,VALID,292,VALID,0,
2013-05-20, 10:43:04,VALID,917.53,VALID,0,VALID,53.2419,VALID,787.006,VALID,27.1911,VALID,294,VALID,0,
2013-05-20, 10:44:04,VALID,917.527,VALID,0,VALID,54.2863,VALID,900.035,VALID,26.9567,VALID,280,VALID,0,
2013-05-20, 10:45:04,VALID,917.542,VALID,0,VALID,55.7729,VALID,898.638,VALID,27.0544,VALID,11,VALID,0.00234375,
2013-05-20, 10:46:04,VALID,917.517,VALID,0,VALID,54.4769,VALID,995.765,VALID,27.3475,VALID,5,VALID,0,
2013-05-20, 10:47:04,VALID,917.536,VALID,0,VALID,52.1899,VALID,915.936,VALID,27.5254,VALID,320,VALID,0,
2013-05-20, 10:48:04,VALID,917.539,VALID,0,VALID,51.8392,VALID,793.345,VALID,27.6622,VALID,320,VALID,0,
2013-05-20, 10:49:04,VALID,917.516,VALID,0,VALID,51.0616,VALID,1006.08,VALID,27.8185,VALID,275,VALID,0,
2013-05-20, 10:50:04,VALID,917.506,VALID,0,VALID,51.1302,VALID,784.858,VALID,28.014,VALID,275,VALID,0,
2013-05-20, 10:51:04,VALID,917.528,VALID,0,VALID,49.6818,VALID,865.224,VALID,28.1313,VALID,274,VALID,0,
2013-05-20, 10:52:04,VALID,917.493,VALID,0,VALID,51.7249,VALID,884.67,VALID,28.1117,VALID,87,VALID,0,
2013-05-20, 10:53:04,VALID,917.498,VALID,0,VALID,50.0553,VALID,874.464,VALID,28.2464,VALID,122,VALID,0.116797,
2013-05-20, 10:54:04,VALID,917.487,VALID,0,VALID,50.1621,VALID,877.257,VALID,28.305,VALID,236,VALID,1.05898,
2013-05-20, 10:55:04,VALID,917.5,VALID,0,VALID,49.3921,VALID,701.806,VALID,28.0335,VALID,256,VALID,0.974609,
2013-05-20, 10:56:04,VALID,917.454,VALID,0,VALID,50.4518,VALID,817.09,VALID,27.9163,VALID,194,VALID,1.08047,
2013-05-20, 10:57:04,VALID,917.481,VALID,0,VALID,50.9625,VALID,907.663,VALID,27.9358,VALID,169,VALID,1.15156,
2013-05-20, 10:58:04,VALID,917.461,VALID,0,VALID,52.0069,VALID,813.974,VALID,28.2094,VALID,264,VALID,0.282031,
2013-05-20, 10:59:04,VALID,917.451,VALID,0,VALID,50.4365,VALID,886.067,VALID,28.6786,VALID,222,VALID,0.371875,
2013-05-20, 11:00:04,VALID,917.439,VALID,0,VALID,50.8177,VALID,900.894,VALID,28.8741,VALID,263,VALID,0,
2013-05-20, 11:01:04,VALID,917.439,VALID,0,VALID,47.5549,VALID,889.828,VALID,28.8523,VALID,256,VALID,0,
2013-05-20, 11:02:04,VALID,917.4,VALID,0,VALID,48.584,VALID,879.836,VALID,28.7372,VALID,259,VALID,0,
2013-05-20, 11:03:04,VALID,917.43,VALID,0,VALID,46.4114,VALID,867.802,VALID,28.5982,VALID,246,VALID,0,
2013-05-20, 11:04:04,VALID,917.408,VALID,0,VALID,49.0109,VALID,858.24,VALID,28.5222,VALID,316,VALID,0,
2013-05-20, 11:05:04,VALID,917.404,VALID,0,VALID,48.5993,VALID,860.281,VALID,28.659,VALID,17,VALID,0,
2013-05-20, 11:06:04,VALID,917.44,VALID,0,VALID,46.6706,VALID,838.471,VALID,28.8936,VALID,262,VALID,0,
2013-05-20, 11:07:04,VALID,917.465,VALID,0,VALID,46.6172,VALID,653.672,VALID,28.9501,VALID,222,VALID,0,
2013-05-20, 11:08:04,VALID,917.487,VALID,0,VALID,45.3136,VALID,701.591,VALID,28.9696,VALID,340,VALID,0,
2013-05-20, 11:09:04,VALID,917.466,VALID,0,VALID,47.9818,VALID,745.642,VALID,28.9892,VALID,28,VALID,0,
2013-05-20, 11:10:04,VALID,917.495,VALID,0,VALID,46.5943,VALID,732.964,VALID,29.1064,VALID,226,VALID,0,
2013-05-20, 11:11:04,VALID,917.479,VALID,0,VALID,46.3199,VALID,783.568,VALID,28.8719,VALID,280,VALID,0,
2013-05-20, 11:12:04,VALID,917.455,VALID,0,VALID,46.0454,VALID,799.362,VALID,28.9696,VALID,280,VALID,0,
2013-05-20, 11:13:04,VALID,917.457,VALID,0,VALID,45.3212,VALID,799.362,VALID,29.2042,VALID,299,VALID,0,
2013-05-20, 11:14:04,VALID,917.431,VALID,0,VALID,46.236,VALID,807.205,VALID,29.2042,VALID,3,VALID,0,
2013-05-20, 11:15:04,VALID,917.406,VALID,0,VALID,46.3427,VALID,801.296,VALID,29.3042,VALID,283,VALID,0,
2013-05-20, 11:16:04,VALID,917.38,VALID,0,VALID,45.9997,VALID,815.586,VALID,29.2628,VALID,251,VALID,0,
2013-05-20, 11:17:04,VALID,917.38,VALID,0,VALID,46.6934,VALID,814.511,VALID,29.126,VALID,246,VALID,0,
2013-05-20, 11:18:04,VALID,917.372,VALID,0,VALID,46.2436,VALID,819.346,VALID,28.8741,VALID,252,VALID,0,
2013-05-20, 11:19:04,VALID,917.365,VALID,0,VALID,46.9679,VALID,818.057,VALID,28.6177,VALID,272,VALID,0,
2013-05-20, 11:20:04,VALID,917.343,VALID,0,VALID,45.7786,VALID,823.751,VALID,28.4614,VALID,222,VALID,0,
2013-05-20, 11:21:04,VALID,917.296,VALID,0,VALID,47.0898,VALID,824.718,VALID,28.5026,VALID,280,VALID,0,
2013-05-20, 11:22:04,VALID,917.283,VALID,0,VALID,45.8548,VALID,822.892,VALID,28.5982,VALID,236,VALID,0,
2013-05-20, 11:23:04,VALID,917.265,VALID,0,VALID,45.7253,VALID,828.479,VALID,28.7155,VALID,236,VALID,0,
2013-05-20, 11:24:04,VALID,917.26,VALID,0,VALID,46.1217,VALID,818.487,VALID,28.7155,VALID,206,VALID,0,
2013-05-20, 11:25:04,VALID,917.243,VALID,0,VALID,47.4558,VALID,823.107,VALID,28.6742,VALID,242,VALID,0,
2013-05-20, 11:26:04,VALID,917.248,VALID,0,VALID,46.8611,VALID,814.619,VALID,28.735,VALID,245,VALID,0,
2013-05-20, 11:27:04,VALID,917.234,VALID,0,VALID,49.0491,VALID,813.867,VALID,28.6177,VALID,310,VALID,0,
2013-05-20, 11:28:04,VALID,917.215,VALID,0,VALID,49.4302,VALID,809.677,VALID,28.7937,VALID,36,VALID,0,
2013-05-20, 11:29:04,VALID,917.21,VALID,0,VALID,46.8764,VALID,802.156,VALID,28.9696,VALID,319,VALID,0,
2013-05-20, 11:30:04,VALID,917.214,VALID,0,VALID,46.5791,VALID,812.148,VALID,29.0087,VALID,311,VALID,0,
2013-05-20, 11:31:04,VALID,917.18,VALID,0,VALID,46.7392,VALID,804.197,VALID,29.0673,VALID,313,VALID,0,
2013-05-20, 11:32:04,VALID,917.158,VALID,0,VALID,47.6692,VALID,805.594,VALID,29.1064,VALID,308,VALID,0,